Location: Little Italy
(37.8008°N, 122.4108°W)
Time: 08:20:18
(UTC+00:00)

ADEOS Rocket - Pass Details

Date: 29 October 2020
Orbit: 859 x 1306 km, 98.7° (Epoch: 02 December)

Event Time Altitude Azimuth Distance (km) Brightness Sun altitude
Rises 12:42:33 0° 180° (S) 3,449 5.9 -22.2°
Reaches altitude 10° 12:45:00 10° 186° (S) 2,496 5.1 -21.8°
Maximum altitude 12:50:17 49° 260° (W) 1,106 2.9 -20.7°
Drops below altitude 10° 12:55:39 10° 335° (NNW) 2,542 4.9 -19.7°
Sets 12:58:11 0° 341° (NNW) 3,519 5.7 -19.2°
